EW8148 Weather Reports


time (UTC)temp
F
wind
direction
speed
knots
gust
knots
rain 1hr
in
rain 24hr
in
rain mn
in
humidity
%
barometer
mb
20260504110307 53 39 0.0 0.0 0.00 0.00 0.00 74 1008.7
20260504100258 55 39 0.0 0.0 0.00 0.00 0.00 68 1008.5
20260504081753 57 39 0.0 0.0 0.00 0.00 0.00 61 1008.4
20260504081252 57 39 0.0 0.0 0.00 0.00 0.00 61 1008.4
20260504080751 57 39 0.0 0.0 0.00 0.00 0.00 61 1008.5
20260504080253 58 39 0.0 0.0 0.00 0.00 0.00 59 1008.5
20260504070256 59 39 0.0 0.0 0.00 0.00 0.00 57 1008.6
20260504070251 59 39 0.0 0.0 0.00 0.00 0.00 58 1008.6
20260504060245 60 39 0.0 0.9 0.00 0.00 0.00 59 1008.5
20260504050739 65 39 0.9 1.7 0.00 0.00 0.00 48 1008.3
20260504050245 65 47 0.0 1.7 0.00 0.00 0.00 51 1008.3
20260504050240 65 39 0.0 1.7 0.00 0.00 0.00 49 1008.3
20260504045238 65 47 0.0 1.7 0.00 0.00 0.00 47 1008.3
20260504044737 65 27 0.0 2.6 0.00 0.00 0.00 50 1008.3
20260504044236 65 30 0.0 2.6 0.00 0.00 0.00 47 1008.3
20260504043738 66 44 0.0 0.9 0.00 0.00 0.00 49 1008.3
20260504043239 66 44 0.0 0.9 0.00 0.00 0.00 49 1008.2
20260504042737 67 44 0.0 1.7 0.00 0.00 0.00 48 1008.2
20260504042238 67 44 0.0 1.7 0.00 0.00 0.00 49 1008.2
20260504041737 68 24 0.9 4.3 0.00 0.00 0.00 47 1008.1
20260504041245 68 53 0.9 2.6 0.00 0.00 0.00 46 1008.1
20260504041238 68 21 0.9 4.3 0.00 0.00 0.00 44 1008.1
20260504040907 68 50 0.9 2.6 0.00 0.00 0.00 43 1008.1
20260504035735 67 23 0.0 0.9 0.00 0.00 0.00 48 1008.1
20260504035234 67 23 0.0 0.0 0.00 0.00 0.00 51 1008.1
20260504034735 68 22 0.0 0.9 0.00 0.00 0.00 50 1008.1
20260504034241 70 22 0.0 0.9 0.00 0.00 0.00 44 1008.0
20260504034234 69 22 0.0 0.9 0.00 0.00 0.00 50 1008.0
20260504033734 69 22 0.0 0.9 0.00 0.00 0.00 47 1008.0
20260504032734 71 23 0.0 2.6 0.00 0.00 0.00 43 1008.0
20260504032235 71 22 0.0 2.6 0.00 0.00 0.00 48 1008.0
20260504031737 71 75 0.0 0.9 0.00 0.00 0.00 44 1008.0
20260504031732 72 76 0.0 1.7 0.00 0.00 0.00 46 1008.0
20260504030734 73 75 0.0 1.7 0.00 0.00 0.00 42 1008.1
20260504030230 73 37 0.9 4.3 0.00 0.00 0.00 40 1008.0
20260504025730 74 40 0.9 4.3 0.00 0.00 0.00 41 1007.9
20260504025237 74 83 0.9 2.6 0.00 0.00 0.00 39 1007.9
20260504025230 74 26 0.9 2.6 0.00 0.00 0.00 40 1007.9
20260504024854 74 34 0.9 2.6 0.00 0.00 0.00 41 1007.9
20260504023730 75 43 0.9 3.5 0.00 0.00 0.00 40 1007.9
20260504023231 75 44 0.9 3.5 0.00 0.00 0.00 39 1007.9
20260504022732 75 54 0.9 3.5 0.00 0.00 0.00 40 1007.9
20260504022235 76 20 0.9 3.5 0.00 0.00 0.00 39 1007.9
20260504022229 76 7 0.9 2.6 0.00 0.00 0.00 42 1007.9
20260504021227 76 16 0.9 3.5 0.00 0.00 0.00 39 1007.9
20260504020726 77 84 0.9 3.5 0.00 0.00 0.00 38 1008.0
20260504020232 77 23 0.9 4.3 0.00 0.00 0.00 37 1008.0
20260504020226 77 288 0.9 3.5 0.00 0.00 0.00 38 1007.9
20260504015226 78 79 0.9 4.3 0.00 0.00 0.00 37 1008.0
20260504014725 78 109 0.9 4.3 0.00 0.00 0.00 36 1008.1
20260504014223 78 32 0.9 4.3 0.00 0.00 0.00 35 1008.1
20260504013725 78 91 0.9 2.6 0.00 0.00 0.00 35 1008.1
20260504013223 79 82 0.9 2.6 0.00 0.00 0.00 35 1008.0
20260504012722 79 18 0.9 4.3 0.00 0.00 0.00 35 1008.1
20260504012219 79 107 0.9 4.3 0.00 0.00 0.00 34 1008.1
20260504011721 79 15 1.7 7.0 0.00 0.00 0.00 34 1008.2
20260504011220 79 82 1.7 7.0 0.00 0.00 0.00 34 1008.2
20260504010723 80 38 2.6 7.0 0.00 0.00 0.00 33 1008.2
20260504010720 80 43 1.7 7.0 0.00 0.00 0.00 34 1008.2
20260504005722 80 73 2.6 5.2 0.00 0.00 0.00 33 1008.4
20260504005220 80 88 2.6 6.1 0.00 0.00 0.00 34 1008.4
20260504004720 80 59 2.6 6.1 0.00 0.00 0.00 35 1008.5
20260504004221 80 17 2.6 6.1 0.00 0.00 0.00 34 1008.5
20260504003726 80 65 2.6 6.1 0.00 0.00 0.00 35 1008.6
20260504003718 80 94 2.6 6.1 0.00 0.00 0.00 34 1008.6
20260504002716 80 79 2.6 7.8 0.00 0.00 0.00 34 1008.6
20260504002216 80 70 2.6 7.8 0.00 0.00 0.00 35 1008.6
20260504001715 80 71 2.6 7.0 0.00 0.00 0.00 35 1008.7
20260504001217 80 7 3.5 7.0 0.00 0.00 0.00 35 1008.7
20260504000715 79 25 3.5 8.7 0.00 0.00 0.00 35 1008.7
20260504000215 80 12 3.5 8.7 0.00 0.00 0.00 35 1008.8
20260503235717 80 78 2.6 7.0 0.00 0.00 0.00 35 1008.8
20260503235216 80 49 2.6 7.8 0.00 0.00 0.00 35 1008.9
20260503234717 80 86 4.3 7.8 0.00 0.00 0.00 36 1009.0
20260503234217 80 88 4.3 9.6 0.00 0.00 0.00 36 1009.0
20260503233722 80 18 2.6 7.0 0.00 0.00 0.00 35 1009.0
20260503233716 80 32 3.5 9.6 0.00 0.00 0.00 35 1009.1
20260503232717 80 44 2.6 7.8 0.00 0.00 0.00 35 1009.2
20260503232216 80 79 3.5 7.8 0.00 0.00 0.00 37 1009.1
20260503231717 80 28 3.5 7.8 0.00 0.00 0.00 35 1009.3
20260503231215 80 78 3.5 7.8 0.00 0.00 0.00 35 1009.4
20260503230717 80 339 3.5 9.6 0.00 0.00 0.00 35 1009.4
20260503230217 80 69 3.5 9.6 0.00 0.00 0.00 35 1009.4
20260503225716 80 44 2.6 7.0 0.00 0.00 0.00 36 1009.5
20260503225216 80 42 3.5 8.7 0.00 0.00 0.00 36 1009.6
20260503224717 80 101 3.5 8.7 0.00 0.00 0.00 35 1009.6
20260503224215 81 28 2.6 6.1 0.00 0.00 0.00 36 1009.7
20260503223717 81 23 2.6 7.0 0.00 0.00 0.00 36 1009.7
20260503223216 80 13 2.6 7.0 0.00 0.00 0.00 36 1009.9
20260503222718 81 86 2.6 6.1 0.00 0.00 0.00 36 1009.9
20260503222217 80 70 3.5 6.1 0.00 0.00 0.00 37 1009.9
20260503221715 80 81 3.5 6.1 0.00 0.00 0.00 37 1009.9
20260503221217 80 28 3.5 6.1 0.00 0.00 0.00 37 1010.1
20260503220717 79 82 3.5 7.0 0.00 0.00 0.00 37 1010.1
20260503220216 79 79 4.3 7.8 0.00 0.00 0.00 38 1010.1
20260503215716 79 150 4.3 7.8 0.00 0.00 0.00 38 1010.2
20260503215215 79 84 4.3 8.7 0.00 0.00 0.00 38 1010.3
20260503214722 80 127 2.6 6.1 0.00 0.00 0.00 37 1010.4
20260503214715 79 11 3.5 8.7 0.00 0.00 0.00 37 1010.4
20260503214216 80 359 1.7 6.1 0.00 0.00 0.00 38 1010.4
20260503213838 79 30 2.6 7.0 0.00 0.00 0.00 38 1010.5
20260503212716 78 84 3.5 7.0 0.00 0.00 0.00 38 1010.6
20260503212216 78 88 2.6 5.2 0.00 0.00 0.00 38 1010.6
20260503211723 78 106 2.6 7.8 0.00 0.00 0.00 38 1010.7
20260503211717 79 69 2.6 7.8 0.00 0.00 0.00 38 1010.7
20260503210715 78 98 2.6 7.0 0.00 0.00 0.00 38 1010.8
20260503210220 78 85 2.6 7.0 0.00 0.00 0.00 38 1010.8
20260503210215 78 205 2.6 7.0 0.00 0.00 0.00 38 1010.8
20260503205215 79 110 2.6 8.7 0.00 0.00 0.00 37 1010.9
20260503204714 77 259 2.6 8.7 0.00 0.00 0.00 38 1011.0
20260503204212 77 332 2.6 7.8 0.00 0.00 0.00 37 1011.0
20260503203711 78 39 2.6 9.6 0.00 0.00 0.00 37 1011.1
20260503203212 78 342 3.5 9.6 0.00 0.00 0.00 38 1011.1
20260503202716 77 90 2.6 8.7 0.00 0.00 0.00 39 1011.2
20260503202212 78 77 2.6 7.8 0.00 0.00 0.00 40 1011.2
20260503201713 77 70 1.7 7.8 0.00 0.00 0.00 40 1011.4
20260503201214 77 50 2.6 7.8 0.00 0.00 0.00 39 1011.5
20260503200716 76 34 3.5 8.7 0.00 0.00 0.00 41 1011.6
20260503200712 76 19 3.5 8.7 0.00 0.00 0.00 40 1011.5
20260503195711 76 63 3.5 7.8 0.00 0.00 0.00 42 1011.6
20260503195213 76 36 3.5 7.8 0.00 0.00 0.00 40 1011.7
20260503194711 76 44 3.5 7.8 0.00 0.00 0.00 41 1011.8
20260503194211 76 28 3.5 7.8 0.00 0.00 0.00 40 1011.8
20260503193711 76 280 2.6 7.8 0.00 0.00 0.00 40 1011.9
20260503193209 76 331 2.6 7.0 0.00 0.00 0.00 41 1011.9
20260503192710 75 89 2.6 8.7 0.00 0.00 0.00 42 1012.0
20260503192210 74 83 2.6 8.7 0.00 0.00 0.00 42 1012.1
20260503191707 75 39 2.6 7.8 0.00 0.00 0.00 42 1012.1
20260503191214 73 74 4.3 10.4 0.00 0.00 0.00 42 1012.2
20260503191208 74 98 4.3 7.8 0.00 0.00 0.00 42 1012.2
20260503190214 73 41 4.3 10.4 0.00 0.00 0.00 43 1012.3
20260503190209 73 79 4.3 10.4 0.00 0.00 0.00 42 1012.2
20260503185213 73 77 3.5 11.3 0.00 0.00 0.00 42 1012.3
20260503185207 73 53 3.5 10.4 0.00 0.00 0.00 43 1012.3
20260503184208 73 323 3.5 11.3 0.00 0.00 0.00 44 1012.4
20260503183708 73 51 3.5 9.6 0.00 0.00 0.00 44 1012.6
20260503183206 73 86 3.5 7.8 0.00 0.00 0.00 44 1012.7
20260503182711 72 92 3.5 8.7 0.00 0.00 0.00 45 1012.8
20260503182706 73 46 2.6 8.7 0.00 0.00 0.00 44 1012.7
20260503181706 72 33 3.5 9.6 0.00 0.00 0.00 45 1012.8
20260503181207 72 300 2.6 9.6 0.00 0.00 0.00 46 1012.8
20260503180705 72 68 3.5 9.6 0.00 0.00 0.00 46 1012.8
20260503180206 71 77 3.5 9.6 0.00 0.00 0.00 46 1012.8
20260503175705 72 77 3.5 8.7 0.00 0.00 0.00 46 1012.9
20260503175204 71 357 3.5 8.7 0.00 0.00 0.00 46 1013.0
20260503174710 70 52 3.5 8.7 0.00 0.00 0.00 47 1013.0
20260503174706 71 68 3.5 7.8 0.00 0.00 0.00 48 1013.0
20260503173706 70 37 3.5 8.7 0.00 0.00 0.00 47 1013.0
20260503173204 70 84 2.6 7.8 0.00 0.00 0.00 49 1013.0
20260503172703 69 71 2.6 7.8 0.00 0.00 0.00 49 1013.0
20260503172205 69 354 3.5 8.7 0.00 0.00 0.00 49 1013.1
20260503171703 69 111 3.5 8.7 0.00 0.00 0.00 49 1013.2
20260503171204 68 34 2.6 7.8 0.00 0.00 0.00 50 1013.2
20260503170703 67 330 4.3 10.4 0.00 0.00 0.00 53 1013.2
20260503170202 67 52 5.2 12.2 0.00 0.00 0.00 52 1013.2
20260503160156 64 32 3.5 9.6 0.00 0.00 0.00 57 1013.4
20260503150153 61 53 0.9 4.3 0.00 0.00 0.00 63 1013.4
20260503140159 53 63 0.0 0.0 0.00 0.00 0.00 77 1013.1
20260503140154 54 63 0.0 0.0 0.00 0.00 0.00 76 1013.1
20260503131154 50 131 0.0 0.0 0.00 0.00 0.00 80 1013.1
20260503130654 50 131 0.0 0.0 0.00 0.00 0.00 80 1013.1
20260503130153 50 131 0.0 0.0 0.00 0.00 0.00 80 1013.2
20260503120151 51 131 0.0 0.0 0.00 0.00 0.00 77 1013.2